Weather in Gomzyaki

Russia / Tambov Oblast     53°05′04″N   40°53′10″E
temp.,
°C
wind,
m/s
gust,
m/s
humid.,
%
clouds,
%
prec.,
mm/h
press.,
hPa
HPBL,
m
28 february, sun
sun2800:00−11nnw379674 0.0 1013164
03:00−12nnw349547 0.0 101482
06:00−11nw249654 0.1 1015119
09:00−9nw249571 0.1 1015211
12:00−7nw359191 0.1 1016423
15:00−7nw369296 0.1 1016438
18:00−7nnw2494100 0.1 1017104
21:00−8n2595100 0.1 1019172
1 march, mon
mon100:00−9nne2295100 0.1 102121
03:00−9nnw119699 0.1 102323
06:00−7nw2694100 0.1 1023221
09:00−6nnw3693100 0.1 1026385
12:00−5wnw249294 0.0 1025370
15:00−3sw369293 0.1 1025476
18:00−3wsw5109391 0.0 1023286
21:00−3wsw6129296 0.1 1022477
2 march, tue
tue200:00−3wsw71295100 0.1 1019411
03:00−2wsw81494100 0.3 1015565
06:000wsw71493100 0.2 1011754
09:00+1w81498100 0.3 1009693
12:00+1nw71396100 0.3 1008787
15:000nw7129599 0.6 1008869
18:00−1nw6139464 0.1 1009570
21:00−2wnw5139382 0.3 1010468
3 march, wed
wed300:00−3nw61393100 0.1 1010549
03:00−4nw5139397 0.1 1011483
06:00−5nw6139396 0.1 1011516
09:00−4nnw8128996 0.1 1013822
12:00−3nnw81186100 0.1 1015883
15:00−2nw71288100 0.1 10161153
18:00−4nw51387100 0.1 1017550
21:00−5nw4129151 0.1 1019338
4 march, thu
thu400:00−7wnw369413 0.0 1020124
03:00−7w369542 0.0 1019104
06:00−7wsw479428 0.0 1019135
09:00−5wsw6119316 0.0 1018323
12:00−2wsw7138763 0.0 1016577
15:00−1sw7138582 0.0 1013628
18:00−1sw7178699 0.0 1011577
21:00−1sw8188583 0.0 1009560